Regional Weather Roundup
Issued by NWS Wakefield, VA

Home | Current Version | Previous Version | Graphics & Text | Print | Product List | Glossary On
Versions: 1 2 3 4 5 6 7 8 9 10 11 12 13 14 15 16 17 18 19 20 21 22 23 24 25 26 27 28 29 30 31 32 33 34 35 36 37 38 39 40 41 42 43 44 45 46 47 48 49 50
000
ASUS41 KAKQ 292315
RWRAKQ

REGIONAL WEATHER ROUNDUP
NATIONAL WEATHER SERVICE WAKEFIELD VA
700 PM EDT FRI JUL 29 2016

Note: "fair" indicates few or no clouds below 12,000 feet with no
significant weather and/or obstructions to visibility. * = Denotes
station may not report precipitation (e.g., rain,snow,etc.),
thunder or fog.

VAZ042-051-052>054-056-300000-
NORTHERN VIRGINIA

CITY           SKY/WX    TMP DP  RH WIND       PRES   REMARKS
WASH NATIONAL  FAIR      87  70  56 S7        29.88S
DULLES         FAIR      87  67  51 NW3       29.89S
FORT BELVOIR   FAIR      89  68  49 W5        29.88S
QUANTICO       FAIR      87  68  52 W5        29.89
FREDERICKSBRG*   N/A     87  73  62 S5        29.88F
STAFFORD*      FAIR      85  69  58 CALM      29.94S
WARRENTON      FAIR      89  60  37 CALM      29.90S
CULPEPER*      FAIR      87  68  52 CALM      29.91S
MANASSAS*      MOSUNNY   88  70  55 SW3       29.89S
LEESBURG*      FAIR      90  72  55 W3        29.90S HX  96
WINCHESTER     FAIR      84  64  51 SW3       29.91S
FRONT ROYAL*   FAIR      81  72  74 SW3       29.91R
LURAY*         NOT AVBL
$$

VAZ048-049-060>072-079>083-300000-
CENTRAL AND SOUTH CENTRAL VIRGINIA

CITY           SKY/WX    TMP DP  RH WIND       PRES   REMARKS
RICHMOND       FAIR      85  69  58 NW6       29.91R
CHESTERFIELD*  FAIR      88  63  42 N5        29.92S
PETERSBURG*    FAIR      88  69  53 N3        29.92S
HANOVER        FAIR      86  71  60 CALM      29.92S
TAPPAHANNOCK*  NOT AVBL
QUINTON*       FAIR      84  73  67 CALM      29.90S
CHARLOTTSVILLE FAIR      88  67  49 E5        29.92R
GORDONSVILLE*  FAIR      85  72  63 CALM      29.90F
ORANGE*          N/A     84  72  65 CALM      29.93S
LOUISA*        FAIR      88  75  66 SE3       29.91S HX  97
BUMPASS*       FAIR      82  74  78 CALM      29.91S
FARMVILLE*     NOT AVBL
CREWE*         NOT AVBL
FORT PICKETT*  FAIR      85  71  63 CALM      29.93R
CHASE CITY*    FAIR      84  75  73 CALM      29.92S
CLARKSVILLE*   MOCLDY    86  73  66 CALM      29.92S
SOUTH HILL*    FAIR      85  72  63 CALM      29.98S
LAWRENCEVILLE* FAIR      86  72  63 NW3       29.92S
EMPORIA*       FAIR      86  70  58 NW3       29.92S
$$

VAZ088>098-300000-
SOUTHEAST VIRGINIA

CITY           SKY/WX    TMP DP  RH WIND       PRES   REMARKS
NORFOLK        PTSUNNY   83  72  69 NE8       29.90R
VIRGINIA BEACH PTSUNNY   88  71  57 N8        29.89R
NORFOLK NAVAL  PTSUNNY   84  73  69 E6        29.91R
WEST POINT*    FAIR      85  71  61 CALM      29.91S
SALUDA*        FAIR      83  73  72 N5        29.90S
NEWPORT NEWS   PTSUNNY   84  73  69 N3        29.90R
LANGLEY AFB    CLOUDY    85  75  73 NE6       29.90R
FORT EUSTIS    PTSUNNY   86  73  66 VRB5      29.89R
WILLIAMSBURG*  FAIR      88  75  66 CALM      29.91S HX  97
HR EXEC AP*    CLOUDY    84  73  70 CALM      29.92R
FRANKLIN*      FAIR      86  72  62 NW3       29.91R
US460-WAKEFLD  FAIR      87  72  60 CALM      29.90S
$$

VAZ020-022-025-037-045-300000-
WEST CENTRAL AND SOUTHWEST VIRGINIA

CITY           SKY/WX    TMP DP  RH WIND       PRES   REMARKS
STAUNTON*      FAIR      82  67  60 CALM      29.97R
WAYNESBORO*    FAIR      82  65  57 CALM      29.97S
HOT SPRINGS VA PTSUNNY   72  64  78 S3        30.10R
LYNCHBURG      FAIR      84  69  60 CALM      29.95S
DANVILLE       FAIR      88  66  48 CALM      29.93S
SOUTH BOSTON*  FAIR     N/A N/A N/A CALM      29.92R
MARTINSVILLE   FAIR      87  67  51 CALM      29.97S
ROANOKE        PTSUNNY   85  67  54 CALM      29.97R
BLACKSBURG     LGT RAIN  75  70  86 W3        30.06R
DUBLIN*        CLOUDY    73  72  95 S3        30.05S
MARION*        CLOUDY    75  67  76 CALM      30.08S
HILLSVILLE*    PTSUNNY   70  68  95 N7        30.05R
RICHLANDS*     RAIN      73  71  95 SW3       30.07R
WISE*          CLOUDY    68  66  94 S6        30.08S
ABINGDON*      PTSUNNY   80  70  71 NW5       30.03R
$$

MDZ021>025-VAZ099-100-300000-
SOUTHERN MARYLAND AND THE DELMARVA PENINSULA

CITY           SKY/WX    TMP DP  RH WIND       PRES   REMARKS
PATUXENT RIVER MOSUNNY   85  70  60 CALM      29.89R
BAY BRIDGE APT SUNNY     86  73  66 S5        29.89R
LEONARDTOWN      N/A     84  68  58 MISG        N/A
DOVER          SUNNY     83  75  74 NE6       29.87R
GEORGETOWN     MOSUNNY   84  70  62 E6        29.90R
EASTON         MOSUNNY   86  75  70 W3        29.93R HX  95
CAMBRIDGE      MOSUNNY   82  70  65 NW3       29.89R
SALISBURY      NOT AVBL
OCEAN CITY     SUNNY     79  73  82 E6        29.89R
WALLOPS ISLAND FAIR      81  72  74 SE7       29.90R
ACCOMACK*      NOT AVBL
$$

NCZ012>017-030>032-300000-
NORTH CENTRAL AND EASTERN NORTH CAROLINA

CITY           SKY/WX    TMP DP  RH WIND       PRES   REMARKS
ROANOKE RAPIDS FAIR      86  72  62 CALM      29.91R
RALEIGH        MOSUNNY   90  68  48 N3        29.93R
ELIZABETH CITY PTSUNNY   88  74  63 N8        29.89R HX  96
AHOSKIE*       SUNNY     83  75  76 CALM      29.91S
EDENTON*       MOSUNNY   89  72  58 N7        29.90R HX  96
CURRITUCK*     MOSUNNY   84  75  74 NE6       29.90R
KILL DEVIL HLS PTSUNNY   87  80  77 CALM      29.88R HX 103
MANTEO           N/A     84  79  83 E5        29.89R HX  96
CAPE HATTERAS  CLOUDY    84  78  82 SW10      29.89R HX  95
TARBORO*       FAIR      89  74  61 N3        29.91S HX  97
GOLDSBORO      SUNNY     93  68  43 NW7       29.90R HX  97
WASHINGTON     SUNNY     87  75  67 N5        29.90R HX  96
GREENVILLE     SUNNY     90  73  58 N5        29.93R HX  98
NEW BERN       MOSUNNY   90  72  55 NW6       29.90R HX  97
WILMINGTON     SUNNY     93  71  48 W10       29.90S HX 100
$$

VAZ048-300000-
ELSEWHERE

CITY           SKY/WX    TMP DP  RH WIND       PRES   REMARKS
HARRISBURG PA  MOSUNNY   88  74  63 S3        29.86S HX  96
BALTIMORE      MOSUNNY   85  73  67 S7        29.87S
ANNAPOLIS      SUNNY     84  72  67 S8        29.88R
ANDREWS AFB    FAIR      85  70  61 SW6       29.88S
PHILADELPHIA   MOSUNNY   85  68  56 S7        29.87R
GREENSBORO     MOSUNNY   89  65  44 CALM      29.94S
ROCKY MOUNT    SUNNY     90  72  55 NW6       29.91R HX  97
$$

VAZ100-300000-
MARINE

STATION/POSITION TIME  TEMP    WIND        PRES    WAVE   SWELL
                       AIR SEA DIR/SP/G            HT/PER HT/PER
                 (UTC) (F)     (DEG/KT/KT) (MB)    (FT/S) (FT/S)
BRANDYWINE LGT   2200   74                   N/A
CAPE MAY NJ      2200   77 75              1011.6R
LEWES DE         2200   78 77              1011.9R
OCEAN-CITY-INLET 2200   79 74              1012.4R
WACHAPREAGUE VA  2200   86 85              1011.9R
THOMAS POINT MD  2300   83 84  170/  6/  6 1013.4R
GOOSES REEF MD   2300   85 87  130/  4/  6 1013.1R   0
COVE POINT MD    2200   83                 1012.5R
SOLOMONS ISLAND  2200   84 85                N/A
BISHOPS HEAD MD  2200   85                 1012.1R
POTOMAC MD       2300   85 85  300/  2/  4 1011.2R   0
CAMBRIDGE MD     2200   85 87              1011.0R
LEWISETTA VA     2200   85 87              1011.8R
RAPPAHANNOCK LGT 2200                      1012.8R
STINGRAY PT      2300   85 86  300/  8/ 10 1012.8R   1
YORK RVR RNG VA  2200   84                 1011.7R
YORKTOWN VA      2200   84 85              1011.8R
JAMESTOWN VA     2300   86 89  330/  6/  8   N/A     0
DOMINION TERM VA 2200   83                 1012.3R
KIPTOPEKE VA     2200      82                N/A
CHES BAY BRIDGE  2200   81 80              1012.0R
CAPE HENRY VA    2200   81                   N/A
WILLOUBY STN VA  2200   82                   N/A
CAPE HENRY BUOY  2212      80                N/A     1/ 8
1ST LANDING BUOY 2300   81 81   10/  4/  6 1012.1R   1/ 4
CAPE CHARLES BUO 2226      79                N/A     1/14
OFFSHORE WE BUOY 2221      83                N/A     2/ 5
64NM E OF VA BCH 2250   83 83  320/  8/ 10 1011.8R   3/ 6   2/ 6
DUCK PIER NC     2200   87 67              1011.1R
44100 DUCK FRF   2205      82                N/A     2/ 5
44056 DUCK FRF   2211      80                N/A     1/ 9
OREGON INLET NC  2200   83 85              1011.6R
HATTERAS NC      2200   84 84              1011.6S
DIAMOND SHLS NC  2250   86 86  230/ 19/ 23 1011.8S   4/ 6   2/ 8
CAPE LOOKOUT NC  2300   85     220/ 10/ 13 1012.2R
$$



USA.gov is the U.S. government's official web portal to all federal, state and local government web resources and services.